Weather History for KSGF - January, 2011

Change the Weather History Date:

Saturday, January 22, 2011

  Actual Average Record
Temperature  
Mean Temperature 27 °F 33 °F  
Max Temperature 39 °F 43 °F 74 °F (1967)
Min Temperature 14 °F 22 °F -11 °F (1930)
Degree Days  
Heating Degree Days 38 32  
Month to date heating degree days 824 719  
Since 1 July heating degree days 2600 2529  
Cooling Degree Days 0 0  
Month to date cooling degree days 0 0  
Year to date cooling degree days 0 0  
Moisture  
Dew Point 24 °F    
Average Humidity 85    
Maximum Humidity 100    
Minimum Humidity 70    
Precipitation  
Precipitation 0.00 in 0.08 in 0.97 in (1937)
Month to date precipitation 0.26 1.81  
Year to date precipitation 0.26 1.81  
Snow  
Snow 0.00 in - - ()
Month to date snowfall 3.0  
Since 1 July snowfall 4.0  
Snow Depth 1.00 in    
Sea Level Pressure  
Sea Level Pressure 29.95 in    
Wind  
Wind Speed 7 mph (SSW)    
Max Wind Speed 15 mph    
Max Gust Speed 17 mph    
Visibility 9 miles    
Events      
T = Trace of Precipitation, MM = Missing Value Source: NWS Daily Summary

Daily Weather History Graph

Daily Weather History Graph

Search for Another Location

Airport or City:

Trip Planner

Search our weather history database for the weather conditions in past years. The results will help you decide how hot, cold, wet, or windy it might be!

Date:

Astronomy

Jan. 22, 2011 Rise Set
Actual Time 7:23 AM CST 5:27 PM CST
Civil Twilight 6:55 AM CST 5:55 PM CST
Nautical Twilight 6:23 AM CST 6:26 PM CST
Astronomical Twilight 5:52 AM CST 6:57 PM CST
Moon 9:10 PM CST (1/22) 8:55 AM CST (1/22)
Length of Visible Light 10h 59m
Length of Day
10h 03m
Waning Gibbous, 89% of the Moon is Illuminated
Jan 22
Waning Gibbous
Jan 26
Last Quarter
Feb 2
New
Feb 11
First Quarter
Feb 18
Full

Hourly Weather History & Observations

Time (CST) Temp. Windchill Dew Point Humidity Pressure Visibility Wind Dir Wind Speed Gust Speed Precip Events Conditions
12:52 AM 27.0 °F 18.7 °F 21.9 °F 81% 29.95 in 10.0 mi SW 8.1 mph - N/A   Overcast
1:52 AM 25.0 °F 17.1 °F 19.9 °F 81% 29.95 in 10.0 mi SW 6.9 mph - N/A   Partly Cloudy
2:52 AM 27.0 °F 17.3 °F 21.0 °F 78% 29.96 in 10.0 mi WSW 10.4 mph - N/A   Mostly Cloudy
3:03 AM 26.6 °F 16.8 °F 21.2 °F 80% 29.91 in 10.0 mi WSW 10.4 mph - N/A   Mostly Cloudy
3:10 AM 26.6 °F 18.2 °F 21.2 °F 80% 29.91 in 10.0 mi WSW 8.1 mph - N/A   Partly Cloudy
3:52 AM 24.1 °F 17.0 °F 19.9 °F 84% 29.95 in 10.0 mi West 5.8 mph - N/A   Clear
4:52 AM 18.0 °F - 17.1 °F 96% 29.95 in 10.0 mi Calm Calm - N/A   Partly Cloudy
5:52 AM 18.0 °F 12.7 °F 16.0 °F 92% 29.95 in 7.0 mi West 3.5 mph - N/A   Clear
6:52 AM 17.1 °F 10.0 °F 16.0 °F 96% 29.96 in 7.0 mi WSW 4.6 mph - N/A   Clear
7:52 AM 17.1 °F 10.0 °F 17.1 °F 100% 29.96 in 4.0 mi SSW 4.6 mph - N/A   Clear
8:52 AM 21.9 °F 15.7 °F 19.9 °F 92% 29.99 in 6.0 mi WSW 4.6 mph - N/A   Mostly Cloudy
9:52 AM 27.0 °F - 23.0 °F 85% 29.99 in 8.0 mi Calm Calm - N/A   Mostly Cloudy
10:52 AM 32.0 °F 25.6 °F 24.1 °F 73% 30.00 in 10.0 mi West 6.9 mph - N/A   Scattered Clouds
11:28 AM 32.0 °F - 24.8 °F 75% 29.95 in 10.0 mi Calm Calm - N/A   Overcast
11:52 AM 33.1 °F 28.7 °F 26.1 °F 75% 29.98 in 10.0 mi SSW 4.6 mph - N/A   Overcast
12:52 PM 35.1 °F 30.1 °F 28.0 °F 76% 29.94 in 10.0 mi South 5.8 mph - N/A   Overcast
1:49 PM 37.4 °F 31.4 °F 28.4 °F 70% 29.87 in 10.0 mi SSE 8.1 mph - N/A   Scattered Clouds
1:52 PM 37.9 °F 31.5 °F 28.9 °F 70% 29.91 in 10.0 mi SSE 9.2 mph - N/A   Partly Cloudy
2:52 PM 37.9 °F 32.1 °F 28.9 °F 70% 29.90 in 10.0 mi South 8.1 mph - N/A   Clear
3:52 PM 37.9 °F 32.1 °F 28.9 °F 70% 29.91 in 10.0 mi SSE 8.1 mph - N/A   Clear
4:52 PM 36.0 °F 33.3 °F 30.0 °F 79% 29.94 in 10.0 mi South 3.5 mph - N/A   Clear
5:52 PM 34.0 °F 26.6 °F 28.0 °F 79% 29.94 in 10.0 mi SE 9.2 mph - N/A   Clear
6:52 PM 35.1 °F 27.9 °F 28.0 °F 76% 29.92 in 10.0 mi SE 9.2 mph - N/A   Clear
7:52 PM 35.1 °F 27.9 °F 28.0 °F 76% 29.94 in 10.0 mi SSE 9.2 mph - N/A   Overcast
8:52 PM 35.1 °F 27.4 °F 28.0 °F 76% 29.96 in 10.0 mi SSE 10.4 mph - N/A   Overcast
9:52 PM 35.1 °F 27.4 °F 28.0 °F 76% 29.96 in 10.0 mi SSE 10.4 mph - N/A   Overcast
10:52 PM 36.0 °F 29.0 °F 27.0 °F 70% 29.96 in 10.0 mi SE 9.2 mph - N/A   Overcast
11:52 PM 35.1 °F 27.9 °F 28.0 °F 76% 29.97 in 10.0 mi SE 9.2 mph - N/A   Overcast